FW9784 Weather Reports


Display with metric or nautical units.
time (UTC)temp
F
wind
direction
speed
MPH
gust
MPH
rain 1hr
in
rain 24hr
in
rain mn
in
humidity
%
barometer
mb
20260901031805 68 251 1.0 3.0 0.00 0.00 0.00 87 1012.6
20260901031304 68 259 2.0 4.0 0.00 0.00 0.00 87 1012.6
20260901030804 69 298 2.0 6.0 0.00 0.00 0.00 87 1012.5
20260901030304 69 298 2.0 6.0 0.00 0.00 0.00 87 1012.5
20260901025805 69 0 2.0 5.0 0.00 0.00 0.00 87 1012.5
20260901025306 69 304 2.0 5.0 0.00 0.00 0.00 87 1012.4
20260901024804 69 0 2.0 6.0 0.00 0.00 0.00 87 1012.5
20260901024300 69 220 2.0 6.0 0.00 0.00 0.00 87 1012.4
20260901024202 69 269 2.0 6.0 0.00 0.00 0.00 87 1012.4
20260901023258 70 301 3.0 10.0 0.00 0.00 0.00 86 1012.6
20260901022756 70 212 3.0 10.0 0.00 0.00 0.00 86 1012.5
20260901022258 70 261 3.0 7.0 0.00 0.00 0.00 86 1012.4
20260901021759 70 0 3.0 8.0 0.00 0.00 0.00 86 1012.4
20260901021255 71 0 3.0 8.0 0.00 0.00 0.00 86 1012.6
20260901020757 71 263 3.0 8.0 0.00 0.00 0.00 85 1012.5
20260901020257 71 221 3.0 8.0 0.00 0.00 0.00 85 1012.5
20260901015755 71 219 3.0 10.0 0.00 0.00 0.00 85 1012.6
20260901015256 71 258 4.0 10.0 0.00 0.00 0.00 85 1012.6
20260901014808 71 0 3.0 8.0 0.00 0.00 0.00 84 1012.6
20260901014608 71 192 3.0 7.0 0.00 0.00 0.00 84 1012.6
20260901014139 71 0 3.0 8.0 0.00 0.00 0.00 84 1012.6
20260901013254 72 214 3.0 8.0 0.00 0.00 0.00 83 1012.5
20260901012808 72 266 2.0 8.0 0.00 0.00 0.00 83 1012.6
20260901012255 72 0 3.0 10.0 0.00 0.00 0.00 83 1012.5
20260901012023 73 0 4.0 10.0 0.00 0.00 0.00 82 1012.6
20260901011925 72 223 4.0 10.0 0.00 0.00 0.00 82 1012.5
20260901010758 73 186 4.0 12.0 0.00 0.00 0.00 82 1012.6
20260901010253 73 249 4.0 12.0 0.00 0.00 0.00 81 1012.6
20260901005800 74 0 3.0 9.0 0.00 0.00 0.00 81 1012.7
20260901005254 74 253 3.0 8.0 0.00 0.00 0.00 79 1012.7
20260901004757 75 165 4.0 9.0 0.00 0.00 0.00 79 1012.7
20260901004647 76 317 3.0 8.0 0.00 0.00 0.00 77 1012.6
20260901004502 75 0 4.0 9.0 0.00 0.00 0.00 78 1012.7
20260901003316 76 293 3.0 8.0 0.00 0.00 0.00 76 1012.6
20260901002807 76 192 3.0 7.0 0.00 0.00 0.00 77 1012.7
20260901002257 76 248 4.0 10.0 0.00 0.00 0.00 77 1012.7
20260901001759 76 0 4.0 10.0 0.00 0.00 0.00 77 1012.8
20260901001248 76 229 4.0 9.0 0.00 0.00 0.00 77 1012.8
20260901000751 76 181 4.0 9.0 0.00 0.00 0.00 76 1012.7
20260901000243 77 278 4.0 9.0 0.00 0.00 0.00 77 1012.7
20260831235747 77 251 4.0 10.0 0.00 0.00 0.00 75 1012.7
20260831235251 77 212 4.0 10.0 0.00 0.00 0.00 75 1012.8
20260831234754 78 0 4.0 11.0 0.00 0.00 0.00 75 1012.7
20260831234242 78 234 3.0 11.0 0.00 0.00 0.00 75 1012.7
20260831233746 77 0 3.0 9.0 0.00 0.00 0.00 76 1012.7
20260831233243 77 207 4.0 9.0 0.00 0.00 0.00 76 1012.7
20260831232747 77 231 4.0 9.0 0.00 0.00 0.00 76 1012.7
20260831232243 78 178 4.0 9.0 0.00 0.00 0.00 76 1012.7
20260831231743 78 281 4.0 9.0 0.00 0.00 0.00 76 1012.6
20260831231247 78 217 4.0 11.0 0.00 0.00 0.00 75 1012.6
20260831230742 78 211 4.0 11.0 0.00 0.00 0.00 74 1012.5
20260831230646 78 263 4.0 10.0 0.00 0.00 0.00 74 1012.6
20260831230056 79 258 4.0 9.0 0.00 0.00 0.00 73 1012.6
20260831225940 79 184 4.0 10.0 0.00 0.00 0.00 74 1012.6
20260831224742 78 0 4.0 10.0 0.00 0.00 0.00 73 1012.8
20260831224241 78 263 5.0 11.0 0.00 0.00 0.00 74 1012.7
20260831223741 78 280 5.0 11.0 0.00 0.00 0.00 74 1012.8
20260831223241 78 0 4.0 10.0 0.00 0.00 0.00 75 1012.8
20260831222741 78 0 4.0 12.0 0.00 0.00 0.00 76 1012.9
20260831222241 78 0 5.0 12.0 0.00 0.00 0.00 75 1013.1
20260831221746 78 0 5.0 10.0 0.00 0.00 0.00 75 1013.2
20260831221243 79 0 4.0 10.0 0.00 0.00 0.00 74 1013.2
20260831220741 79 0 4.0 10.0 0.00 0.00 0.00 74 1013.3
20260831220241 79 0 4.0 9.0 0.00 0.00 0.00 74 1013.3
20260831215741 79 180 4.0 9.0 0.00 0.00 0.00 73 1013.3
20260831215241 79 0 4.0 9.0 0.00 0.00 0.00 70 1013.3
20260831214744 79 0 5.0 12.0 0.00 0.00 0.00 71 1013.3
20260831214240 79 191 5.0 12.0 0.00 0.00 0.00 71 1013.3
20260831214034 78 0 5.0 11.0 0.00 0.00 0.00 71 1013.4
20260831213929 78 0 5.0 11.0 0.00 0.00 0.00 72 1013.4
20260831212741 78 227 5.0 11.0 0.00 0.00 0.00 72 1013.5
20260831212245 78 284 5.0 11.0 0.00 0.00 0.00 72 1013.5
20260831211744 78 228 5.0 12.0 0.00 0.00 0.00 73 1013.5
20260831211239 78 0 5.0 12.0 0.00 0.00 0.00 73 1013.6
20260831210743 78 0 4.0 12.0 0.00 0.00 0.00 73 1013.5
20260831210709 78 0 4.0 11.0 0.00 0.00 0.00 75 1013.6
20260831210703 78 0 5.0 12.0 0.00 0.00 0.00 74 1013.5
20260831205843 78 201 5.0 12.0 0.00 0.00 0.00 74 1013.5
20260831204735 78 284 4.0 11.0 0.00 0.00 0.00 74 1013.6
20260831204233 78 288 5.0 10.0 0.00 0.00 0.00 74 1013.5
20260831203733 78 0 4.0 11.0 0.00 0.00 0.00 74 1013.6
20260831203230 78 0 4.0 11.0 0.00 0.00 0.00 74 1013.6
20260831202730 78 205 4.0 8.0 0.00 0.00 0.00 75 1013.6
20260831202232 78 219 4.0 9.0 0.00 0.00 0.00 75 1013.6
20260831201730 78 267 5.0 11.0 0.00 0.00 0.00 75 1013.7
20260831201229 78 0 5.0 11.0 0.00 0.00 0.00 75 1013.7
20260831201219 78 231 5.0 10.0 0.00 0.00 0.00 75 1013.7
20260831200229 78 217 4.0 10.0 0.00 0.00 0.00 75 1013.7
20260831195725 78 0 4.0 10.0 0.00 0.00 0.00 75 1013.7
20260831195225 78 212 5.0 11.0 0.00 0.00 0.00 75 1013.8
20260831195153 78 208 5.0 11.0 0.00 0.00 0.00 75 1013.9
20260831194224 78 0 5.0 12.0 0.00 0.00 0.00 74 1013.9
20260831193724 78 0 4.0 12.0 0.00 0.00 0.00 75 1013.9
20260831193518 78 256 4.0 11.0 0.00 0.00 0.00 74 1013.9
20260831193350 78 0 4.0 10.0 0.00 0.00 0.00 74 1013.9
20260831192223 78 0 4.0 11.0 0.00 0.00 0.00 74 1013.9
20260831191720 79 192 4.0 9.0 0.00 0.00 0.00 74 1014.0
20260831191612 78 225 4.0 9.0 0.00 0.00 0.00 74 1014.0
20260831190725 78 234 4.0 8.0 0.00 0.00 0.00 75 1014.0
20260831190428 79 262 4.0 8.0 0.00 0.00 0.00 74 1014.0
20260831190342 78 0 4.0 8.0 0.00 0.00 0.00 74 1014.0
20260831185222 79 224 3.0 8.0 0.00 0.00 0.00 74 1014.1
20260831184723 78 174 3.0 8.0 0.00 0.00 0.00 74 1014.0
20260831184220 78 311 3.0 7.0 0.00 0.00 0.00 75 1013.9
20260831183913 78 266 4.0 9.0 0.00 0.00 0.00 75 1014.1
20260831183822 78 235 4.0 9.0 0.00 0.00 0.00 75 1014.0
20260831182748 77 224 3.0 7.0 0.00 0.00 0.00 76 1014.1
20260831182733 78 207 3.0 9.0 0.00 0.00 0.00 76 1014.1
20260831182306 78 298 3.0 8.0 0.00 0.00 0.00 76 1014.1
20260831181217 77 268 3.0 7.0 0.00 0.00 0.00 77 1014.1
20260831180719 77 232 3.0 8.0 0.00 0.00 0.00 77 1014.1
20260831180617 76 231 3.0 8.0 0.00 0.00 0.00 78 1014.1
20260831175721 76 0 3.0 8.0 0.00 0.00 0.00 78 1014.1
20260831175219 76 311 4.0 9.0 0.00 0.00 0.00 78 1014.2
20260831174718 76 267 4.0 9.0 0.00 0.00 0.00 78 1014.2
20260831174220 76 283 3.0 8.0 0.00 0.00 0.00 78 1014.2
20260831173947 77 234 3.0 8.0 0.00 0.00 0.00 78 1014.1
20260831173848 76 211 3.0 8.0 0.00 0.00 0.00 78 1014.1
20260831172719 77 210 3.0 7.0 0.00 0.00 0.00 79 1014.1
20260831172222 76 257 3.0 8.0 0.00 0.00 0.00 78 1014.1
20260831171718 76 211 3.0 8.0 0.00 0.00 0.00 79 1014.1
20260831171221 76 233 2.0 8.0 0.00 0.00 0.00 78 1014.0
20260831170722 76 251 3.0 8.0 0.00 0.00 0.00 77 1014.0
20260831170214 77 227 3.0 7.0 0.00 0.00 0.00 77 1014.0
20260831170115 77 196 1.0 7.0 0.00 0.00 0.00 77 1013.9
20260831165215 77 264 0.0 4.0 0.00 0.00 0.00 76 1013.9
20260831164715 77 176 1.0 5.0 0.00 0.00 0.00 76 1013.8
20260831164210 77 159 2.0 5.0 0.00 0.00 0.00 77 1013.9
20260831163713 76 217 2.0 5.0 0.00 0.00 0.00 78 1013.8
20260831163222 77 250 2.0 5.0 0.00 0.00 0.00 77 1013.7
20260831162710 77 197 2.0 4.0 0.00 0.00 0.00 78 1013.7
20260831162214 77 175 1.0 5.0 0.00 0.00 0.00 78 1013.7
20260831161707 76 178 2.0 5.0 0.00 0.00 0.00 78 1013.6
20260831161553 76 198 2.0 6.0 0.00 0.00 0.00 79 1013.7
20260831160711 76 92 2.0 6.0 0.00 0.00 0.00 79 1013.6
20260831160217 76 92 1.0 4.0 0.00 0.00 0.00 79 1013.6
20260831155706 75 153 2.0 4.0 0.00 0.00 0.00 80 1013.5
20260831155209 75 119 1.0 4.0 0.00 0.00 0.00 80 1013.6
20260831154702 75 78 1.0 4.0 0.00 0.00 0.00 80 1013.6
20260831154209 75 201 1.0 4.0 0.00 0.00 0.00 81 1013.5
20260831153703 74 157 1.0 4.0 0.00 0.00 0.00 81 1013.5
20260831153535 74 0 1.0 3.0 0.00 0.00 0.00 83 1013.5
20260831152702 73 0 1.0 3.0 0.00 0.00 0.00 84 1013.4
20260831152201 73 0 0.0 2.0 0.00 0.00 0.00 84 1013.4
20260831151701 72 0 0.0 2.0 0.00 0.00 0.00 85 1013.4
20260831151304 71 0 1.0 2.0 0.00 0.00 0.00 88 1013.4
20260831151245 72 0 0.0 0.0 0.00 0.00 0.00 87 1013.4
20260831150704 71 0 1.0 2.0 0.00 0.00 0.00 88 1013.3
20260831150630 71 0 1.0 2.0 0.00 0.00 0.00 88 1013.4
20260831145702 71 0 0.0 2.0 0.00 0.00 0.00 89 1013.3
20260831145423 70 0 0.0 0.0 0.00 0.00 0.00 91 1013.3
20260831145313 70 0 0.0 0.0 0.00 0.00 0.00 90 1013.3
20260831144200 69 0 0.0 0.0 0.00 0.00 0.00 92 1013.3
20260831144049 69 0 0.0 0.0 0.00 0.00 0.00 92 1013.2
20260831143157 68 0 0.0 0.0 0.00 0.00 0.00 92 1013.2
20260831142658 68 0 0.0 0.0 0.00 0.00 0.00 92 1013.1
20260831142202 67 0 0.0 0.0 0.00 0.00 0.00 92 1013.0
20260831141655 67 0 0.0 0.0 0.00 0.00 0.00 93 1013.0
20260831141201 67 0 0.0 0.0 0.00 0.00 0.00 93 1012.9
20260831141047 67 0 0.0 0.0 0.00 0.00 0.00 92 1012.7
20260831140153 67 0 0.0 0.0 0.00 0.00 0.00 92 1012.7
20260831135659 67 0 0.0 0.0 0.00 0.00 0.00 92 1012.6
20260831135158 67 0 0.0 0.0 0.00 0.00 0.00 92 1012.6
20260831134656 67 0 0.0 0.0 0.00 0.00 0.00 92 1012.5
20260831134156 67 0 0.0 0.0 0.00 0.00 0.00 92 1012.5
20260831133657 67 0 0.0 0.0 0.00 0.00 0.00 92 1012.4
20260831133159 67 0 0.0 0.0 0.00 0.00 0.00 91 1012.4
20260831132653 67 0 0.0 0.0 0.00 0.00 0.00 91 1012.2
20260831132156 67 0 0.0 0.0 0.00 0.00 0.00 91 1012.2
20260831131656 67 0 0.0 0.0 0.00 0.00 0.00 91 1012.2
20260831131151 67 0 0.0 0.0 0.00 0.00 0.00 91 1012.2
20260831130652 67 0 0.0 0.0 0.00 0.00 0.00 91 1012.1
20260831130150 67 0 0.0 0.0 0.00 0.00 0.00 91 1012.1
20260831125651 67 0 0.0 0.0 0.00 0.00 0.00 91 1012.2
20260831125149 67 0 0.0 0.0 0.00 0.00 0.00 91 1012.1
20260831124644 67 0 0.0 0.0 0.00 0.00 0.00 91 1012.2
20260831124548 67 0 0.0 0.0 0.00 0.00 0.00 91 1012.1
20260831123644 67 0 0.0 0.0 0.00 0.00 0.00 91 1012.0
20260831123638 67 0 0.0 0.0 0.00 0.00 0.00 91 1012.1
20260831123023 67 0 0.0 0.0 0.00 0.00 0.00 91 1012.1
20260831122138 67 0 0.0 0.0 0.00 0.00 0.00 91 1012.0
20260831121638 67 0 0.0 0.0 0.00 0.00 0.00 91 1012.1
20260831121132 67 0 0.0 0.0 0.00 0.00 0.00 90 1012.1
20260831120634 67 0 0.0 0.0 0.00 0.00 0.00 90 1012.1
20260831120444 68 0 0.0 0.0 0.00 0.00 0.00 90 1012.1
20260831115628 68 0 0.0 0.0 0.00 0.00 0.00 90 1012.1
20260831115128 68 0 0.0 0.0 0.00 0.00 0.00 90 1012.1
20260831114628 68 0 0.0 0.0 0.00 0.00 0.00 90 1012.0
20260831114129 68 0 0.0 0.0 0.00 0.00 0.00 89 1012.1
20260831113631 68 0 0.0 0.0 0.00 0.00 0.00 90 1012.0
20260831113127 68 0 0.0 0.0 0.00 0.00 0.00 90 1012.1
20260831112617 68 0 0.0 0.0 0.00 0.00 0.00 89 1012.1
20260831112117 69 0 0.0 0.0 0.00 0.00 0.00 89 1012.2
20260831111620 69 0 0.0 0.0 0.00 0.00 0.00 89 1012.2
20260831111439 69 0 0.0 0.0 0.00 0.00 0.00 89 1012.1
20260831110946 69 0 0.0 0.0 0.00 0.00 0.00 89 1012.2
20260831110431 69 0 0.0 1.0 0.00 0.00 0.00 89 1012.2
20260831105613 69 0 0.0 1.0 0.00 0.00 0.00 89 1012.1
20260831105114 69 0 0.0 1.0 0.00 0.00 0.00 88 1012.1
20260831104933 69 0 0.0 0.0 0.00 0.00 0.00 88 1012.2
20260831104111 69 0 0.0 0.0 0.00 0.00 0.00 88 1012.2
20260831103623 69 0 0.0 1.0 0.00 0.00 0.00 88 1012.2
20260831103112 69 0 0.0 1.0 0.00 0.00 0.00 87 1012.3
20260831102611 69 0 0.0 1.0 0.00 0.00 0.00 87 1012.3
20260831102111 69 0 0.0 1.0 0.00 0.00 0.00 87 1012.3
20260831101907 70 0 1.0 2.0 0.00 0.00 0.00 87 1012.2
20260831101739 70 0 1.0 2.0 0.00 0.00 0.00 87 1012.3
20260831100619 70 0 1.0 2.0 0.00 0.00 0.00 87 1012.2
20260831100103 70 0 0.0 3.0 0.00 0.00 0.00 87 1012.2
20260831095617 70 0 0.0 3.0 0.00 0.00 0.00 87 1012.3
20260831095104 70 0 0.0 3.0 0.00 0.00 0.00 87 1012.2
20260831094609 70 0 1.0 3.0 0.00 0.00 0.00 87 1012.2
20260831094104 70 0 0.0 3.0 0.00 0.00 0.00 86 1012.2
20260831094051 70 0 1.0 3.0 0.00 0.00 0.00 85 1012.1
20260831094046 70 0 1.0 3.0 0.00 0.00 0.00 86 1012.2
20260831092600 70 0 0.0 3.0 0.00 0.00 0.00 85 1012.2
20260831092100 71 0 0.0 2.0 0.00 0.00 0.00 84 1012.2
20260831091600 71 0 1.0 2.0 0.00 0.00 0.00 84 1012.3
20260831091106 71 0 1.0 4.0 0.00 0.00 0.00 84 1012.2
20260831090609 71 0 1.0 4.0 0.00 0.00 0.00 84 1012.3
20260831090109 71 227 2.0 5.0 0.00 0.00 0.00 84 1012.2
20260831085933 71 214 2.0 4.0 0.00 0.00 0.00 84 1012.2
20260831085055 71 203 1.0 4.0 0.00 0.00 0.00 83 1012.3
20260831084554 71 223 1.0 5.0 0.00 0.00 0.00 83 1012.3
20260831084437 71 194 2.0 5.0 0.00 0.00 0.00 83 1012.3
20260831083558 71 153 2.0 5.0 0.00 0.00 0.00 82 1012.3
20260831083418 71 208 1.0 4.0 0.00 0.00 0.00 81 1012.2
20260831082548 71 218 2.0 6.0 0.00 0.00 0.00 81 1012.2
20260831082046 71 215 3.0 7.0 0.00 0.00 0.00 80 1012.3
20260831081546 71 156 2.0 7.0 0.00 0.00 0.00 81 1012.2
20260831081038 71 161 1.0 5.0 0.00 0.00 0.00 81 1012.2
20260831080546 71 174 1.0 5.0 0.00 0.00 0.00 81 1012.3
20260831080036 71 181 1.0 4.0 0.00 0.00 0.00 81 1012.3
20260831075550 71 211 1.0 4.0 0.00 0.00 0.00 81 1012.2
20260831075043 71 193 1.0 4.0 0.00 0.00 0.00 81 1012.2
20260831074548 71 167 2.0 4.0 0.00 0.00 0.00 81 1012.1
20260831074042 71 163 2.0 4.0 0.00 0.00 0.00 79 1012.2
20260831073539 71 102 1.0 5.0 0.00 0.00 0.00 79 1012.1
20260831073049 71 150 1.0 5.0 0.00 0.00 0.00 78 1012.0
20260831072537 71 117 1.0 4.0 0.00 0.00 0.00 78 1012.0
20260831072031 71 111 1.0 4.0 0.00 0.00 0.00 79 1012.1
20260831071536 71 113 1.0 4.0 0.00 0.00 0.00 79 1012.0
20260831071414 71 86 1.0 3.0 0.00 0.00 0.00 79 1012.0
20260831070530 71 160 1.0 4.0 0.00 0.00 0.00 79 1012.0
20260831070032 71 184 2.0 4.0 0.00 0.00 0.00 79 1011.9
20260831065532 71 184 1.0 4.0 0.00 0.00 0.00 78 1011.8
20260831065332 71 194 1.0 2.0 0.00 0.00 0.00 79 1011.9
20260831064911 71 169 1.0 4.0 0.00 0.00 0.00 79 1012.0
20260831064030 71 169 1.0 6.0 0.00 0.00 0.00 79 1012.0
20260831063530 71 136 1.0 6.0 0.00 0.00 0.00 78 1012.1
20260831063029 71 199 0.0 2.0 0.00 0.00 0.00 79 1012.1
20260831062530 71 199 1.0 3.0 0.00 0.00 0.00 79 1012.0
20260831062029 71 199 0.0 3.0 0.00 0.00 0.00 80 1012.0
20260831061532 72 275 1.0 2.0 0.00 0.00 0.00 82 1012.0
20260831061026 72 275 1.0 5.0 0.00 0.00 0.00 83 1011.9
20260831060530 72 197 2.0 5.0 0.00 0.00 0.00 83 1012.0
20260831060358 72 0 1.0 4.0 0.00 0.00 0.00 82 1012.0
20260831055524 72 0 1.0 4.0 0.00 0.00 0.00 80 1011.9
20260831055025 72 214 0.0 4.0 0.00 0.00 0.00 79 1012.0
20260831054525 72 214 1.0 4.0 0.00 0.00 0.00 78 1012.0
20260831054028 72 210 1.0 4.0 0.00 0.00 0.00 78 1012.1
20260831053527 72 227 2.0 4.0 0.00 0.00 0.00 78 1012.0
20260831053411 72 232 2.0 7.0 0.00 0.00 0.00 78 1012.0
20260831052522 72 234 3.0 7.0 0.00 0.00 0.00 79 1011.9
20260831052016 72 207 3.0 9.0 0.00 0.00 0.00 80 1011.9
20260831051545 72 269 3.0 8.0 0.00 0.00 0.00 83 1011.9
20260831051535 72 246 3.0 9.0 0.00 0.00 0.00 82 1011.9
20260831051528 72 0 4.0 9.0 0.00 0.00 0.00 81 1011.8
20260831050016 72 218 3.0 10.0 0.00 0.00 0.00 82 1011.9
20260831045543 72 0 3.0 10.0 0.00 0.00 0.00 80 1012.0
20260831045025 72 257 2.0 7.0 0.00 0.00 0.00 79 1012.0
20260831044537 72 0 3.0 9.0 0.00 0.00 0.00 78 1011.9
20260831044012 72 262 4.0 10.0 0.00 0.00 0.00 77 1011.9
20260831043513 72 0 4.0 10.0 0.00 0.00 0.00 78 1011.9
20260831043012 72 214 3.0 8.0 0.00 0.00 0.00 78 1011.9
20260831042805 72 225 2.0 5.0 0.00 0.00 0.00 79 1011.9
20260831042014 72 254 2.0 7.0 0.00 0.00 0.00 79 1012.0
20260831041939 72 259 2.0 5.0 0.00 0.00 0.00 79 1011.8
20260831041801 72 259 2.0 7.0 0.00 0.00 0.00 79 1011.8
20260831040512 72 215 2.0 6.0 0.00 0.00 0.00 78 1011.8
20260831040012 72 218 2.0 7.0 0.00 0.00 0.00 78 1011.7
20260831035512 72 264 2.0 7.0 0.00 0.00 0.00 78 1011.7
20260831035016 72 0 2.0 7.0 0.00 0.00 0.00 78 1011.6
20260831034508 72 0 2.0 5.0 0.00 0.00 0.00 79 1011.5
20260831034329 72 257 2.0 8.0 0.00 0.00 0.00 80 1011.3
20260831033509 72 261 2.0 8.0 0.00 0.00 0.00 80 1011.2
20260831033008 72 252 2.0 6.0 0.00 0.00 0.00 80 1011.2
20260831032509 72 259 2.0 5.0 0.00 0.00 0.00 80 1011.1
20260831032058 72 235 2.0 7.0 0.00 0.00 0.00 78 1011.1
20260831032019 72 223 2.0 4.0 0.00 0.00 0.00 79 1011.1